Printer-friendly version

IAU Minor Planet Center

Minor Planet Center

MPEC 2004-F42 : 2004 FY3

The following Minor Planet Electronic Circular may be linked-to from your own Web pages, but must not otherwise be redistributed electronically.


Read MPEC 2004-F41 Read MPEC 2004-F43


M.P.E.C. 2004-F42                                Issued 2004 Mar. 21, 01:31 UT

     The Minor Planet Electronic Circulars contain information on unusual
         minor planets and routine data on comets.  They are published
   on behalf of Commission 20 of the International Astronomical Union by the
          Minor Planet Center, Smithsonian Astrophysical Observatory,
                          Cambridge, MA 02138, U.S.A.

         Supported in part by the Steven and Michele Kirsch Foundation
             Prepared using the Tamkin Foundation Computer Network

                              MPC@CFA.HARVARD.EDU
          URL http://cfa-www.harvard.edu/iau/mpc.html  ISSN 1523-6714

                                   2004 FY3

Observations:
     K04F03Y* C2004 03 19.36247 12 58 16.89 -02 28 21.4          18.2   EF042704
     K04F03Y  C2004 03 19.37345 12 58 14.00 -02 34 30.0          17.9   EF042704
     K04F03Y  C2004 03 19.38415 12 58 11.25 -02 40 26.2          18.0   EF042704
     K04F03Y  C2004 03 20.33309 12 57 42.09 -08 52 59.4          18.0   EF042704
     K04F03Y  C2004 03 20.33326 12 57 42.02 -08 53 01.6          18.4   EF042704
     K04F03Y  C2004 03 20.34376 12 57 40.16 -08 55 55.4          18.0   EF042704
     K04F03Y  C2004 03 20.34392 12 57 40.09 -08 55 59.5          18.2   EF042704
     K04F03Y  C2004 03 20.35449 12 57 38.29 -08 58 53.5          18.2   EF042704
     K04F03Y  C2004 03 20.35452 12 57 38.25 -08 58 52.8          18.1   EF042704
     K04F03Y  C2004 03 20.35469 12 57 38.21 -08 58 56.4          18.1   EF042704
     K04F03Y  C2004 03 20.35661 12 57 37.91 -08 59 28.0          18.8   EF042704
     K04F03Y  C2004 03 20.36527 12 57 36.40 -09 01 48.0          18.2   EF042704
     K04F03Y  C2004 03 20.36544 12 57 36.28 -09 01 51.7          18.4   EF042704
     K04F03Y  C2004 03 20.36574 12 57 36.31 -09 01 57.0          18.3   EF042704
     K04F03Y  C2004 03 20.36784 12 57 35.96 -09 02 30.5          18.4   EF042704
     K04F03Y  C2004 03 20.37588 12 57 34.55 -09 04 40.2          18.2   EF042704
     K04F03Y  C2004 03 20.37619 12 57 34.48 -09 04 46.2          18.3   EF042704
     K04F03Y  C2004 03 20.37694 12 57 34.36 -09 04 58.8          18.4   EF042704
     K04F03Y  C2004 03 20.37904 12 57 34.06 -09 05 32.1          18.2   EF042704
     K04F03Y  C2004 03 20.38867 12 57 32.40 -09 08 06.6          18.6   EF042704
     K04F03Y  C2004 03 20.39079 12 57 32.08 -09 08 40.5          18.4   EF042704
     K04F03Y  C2004 03 20.39979 12 57 30.55 -09 11 03.9          18.4   EF042704

Observer details:
704 Lincoln Laboratory ETS, New Mexico.  Observers M. Blythe, F. Shelly,
    M. Bezpalko, R. Huber, L. Manguso, D. Torres, R. Kracke, M. McCleary,
    H. Stange, A. Milner.  Measurers J. Stuart, R. Sayer, J. Evans, J. Kommers.
    1.0-m f/2.15 reflector + CCD.

Orbital elements:
2004 FY3
Epoch 2004 July 14.0 TT = JDT 2453200.5                 MPC
M  54.67679              (2000.0)            P               Q
n   0.35495360     Peri.  128.70255     -0.62262082     -0.78252362
a   1.9755514      Node   359.80435     +0.68542600     -0.54516535
e   0.5557879      Incl.    5.42173     +0.37753744     -0.30075160
P   2.78           H   25.0           G   0.15           U   6
Residuals in seconds of arc
040319 704  0.7+  0.2-    040320 704  0.1-  0.6+    040320 704  0.3-  0.2-
040319 704  0.1-  0.1+    040320 704  0.3-  0.2-    040320 704  0.2-  0.7-
040319 704  0.6-  0.1+    040320 704  0.3+  0.3-    040320 704  0.7+  0.1-
040320 704  0.5+  0.4-    040320 704  0.3+  1.1+    040320 704  0.1+  0.1-
040320 704  0.1-  0.2+    040320 704  1.0-  0.1+    040320 704  0.5+  0.1-
040320 704  0.0   0.8+    040320 704  0.2+  0.3-    040320 704  0.3-  0.3-
040320 704  0.6-  0.7-    040320 704  0.4+  0.3+
040320 704  0.4+  0.6-    040320 704  0.1-  0.8+

Ephemeris:
2004 FY3                 a,e,i = 1.97, 0.55, 5                   q = 0.8777
Date    TT    R. A. (2000) Decl.     Delta      r     Elong.  Phase     V
2004 03 16.0  00 51.38   +54 32.3    0.010    0.989    57.9   121.5    20.0
2004 03 16.2  00 50.06   +58 51.6    0.0092   0.991    61.9   117.7    19.5
2004 03 16.4  00 47.83   +64 20.6    0.0082   0.992    66.9   112.7    18.9
2004 03 16.6  00 43.2    +71 22.3    0.0072   0.993    73.4   106.2    18.2
2004 03 16.8  00 27.8    +80 21.8    0.0064   0.994    81.9    97.7    17.5
2004 03 17.0  15 23      +87 47.0    0.0057   0.995    92.6    87.0    16.8
2004 03 17.2  13 17.8    +74 43.8    0.0054   0.997   105.3    74.4    16.3
2004 03 17.4  13 07.86   +60 22.1    0.0054   0.998   118.9    60.8    15.8
2004 03 17.6  13 04.21   +46 42.4    0.0057   0.999   131.6    48.2    15.6
2004 03 17.8  13 02.31   +35 00.7    0.0063   1.000   142.1    37.7    15.5
2004 03 18.0  13 01.15   +25 38.0    0.0071   1.001   150.1    29.7    15.5
2004 03 18.2  13 00.36   +18 18.7    0.0080   1.003   155.8    24.0    15.6
2004 03 18.4  12 59.79   +12 36.7    0.0091   1.004   159.6    20.2    15.8
2004 03 18.6  12 59.35   +08 07.8    0.010    1.005   162.0    17.8    16.0
2004 03 18.8  12 59.01   +04 33.3    0.011    1.006   163.4    16.4    16.2
2004 03 19.0  12 58.73   +01 39.4    0.013    1.008   164.1    15.7    16.4

2004 03 20.0  12 57.87   -07 04.5    0.019    1.014   163.6    16.1    17.3
2004 03 21.0  12 57.39   -11 21.9    0.025    1.020   162.4    17.2    18.0
2004 03 22.0  12 57.06   -13 52.7    0.032    1.027   161.7    17.7    18.5
2004 03 23.0  12 56.81   -15 31.0    0.039    1.034   161.4    17.9    18.9
2004 03 24.0  12 56.60   -16 39.7    0.046    1.040   161.4    17.8    19.3
2004 03 25.0  12 56.41   -17 30.0    0.052    1.047   161.6    17.5    19.6
2004 03 26.0  12 56.24   -18 08.1    0.059    1.054   161.9    17.1    19.9

2004 04 05.0  12 55.06   -20 20.8    0.130    1.127   165.7    12.6    21.6
2004 04 15.0  12 54.93   -20 24.2    0.206    1.204   165.8    11.8    22.7

Kyle E. Smalley              (C) Copyright 2004 MPC           M.P.E.C. 2004-F42

Read MPEC 2004-F41 Read MPEC 2004-F43


Our Web policy. Index to the CBAT/MPC/ICQ pages.


Valid HTML 4.01!